FW5839 Weather Reports


time (UTC)temp
C
wind
direction
speed
KPH
gust
KPH
rain 1hr
cm
rain 24hr
cm
rain mn
cm
humidity
%
barometer
mb
20260508093042 7 241 27.4 45.1 0.00 3.53 0.00 96 1005.2
20260508091539 7 242 35.4 48.3 0.00 3.53 0.00 96 1005.3
20260508090040 7 235 35.4 46.7 0.00 3.53 0.00 96 1004.9
20260508084535 7 226 27.4 43.5 0.00 3.53 0.00 96 1004.4
20260508083038 7 218 29.0 49.9 0.00 3.53 0.00 96 1004.2
20260508081531 7 222 27.4 45.1 0.00 3.53 0.00 96 1004.1
20260508080050 7 244 33.8 51.5 0.00 3.53 0.00 96 1003.9
20260508074528 7 212 37.0 54.7 0.00 3.53 0.00 97 1003.9
20260508071513 8 226 33.8 51.5 0.00 3.53 0.00 97 1003.6
20260508070018 8 235 38.6 54.7 0.00 3.53 0.00 97 1003.4
20260508064519 8 235 29.0 46.7 0.00 3.53 0.00 97 1003.3
20260508063003 8 248 30.6 49.9 0.00 3.53 0.00 97 1003.2
20260508061600 8 219 29.0 46.7 0.00 3.53 0.00 97 1003.4
20260508060059 8 214 38.6 56.3 0.00 3.53 0.00 97 1003.4
20260508054558 -17 0.0 0.0 0.00 3.53 0.00 1003.7
20260508051501 10 229 29.0 41.8 0.23 3.56 0.25 97 1003.4
20260508050126 11 229 22.5 35.4 0.23 3.53 0.23 97 1003.7
20260508044559 11 242 22.5 30.6 0.15 3.45 0.15 97 1003.8
20260508043104 11 217 20.9 32.2 0.08 3.38 0.08 97 1003.7
20260508041601 11 231 20.9 53.1 0.05 3.33 0.05 97 1003.8
20260508040058 -17 0.0 0.0 0.00 3.30 0.00 1003.9
20260508033045 11 220 30.6 46.7 0.30 3.43 0.13 97 1003.3
20260508031539 12 197 25.7 38.6 0.25 3.33 0.05 97 1003.0
20260508030036 12 223 29.0 41.8 0.23 3.30 0.00 97 1002.9
20260508024535 13 234 16.1 24.1 0.15 3.20 2.31 97 1002.2
20260508023033 13 202 11.3 19.3 0.08 3.12 2.24 97 1002.0
20260508021533 12 133 16.1 27.4 0.05 3.07 2.21 97 1001.7
20260508020030 13 196 19.3 29.0 0.05 3.05 2.18 97 1001.8
20260508014530 13 135 20.9 30.6 0.13 3.05 2.16 97 1001.0
20260508013030 13 135 25.7 37.0 0.23 3.05 2.16 97 1001.3
20260508011527 13 180 20.9 48.3 0.46 3.02 2.13 97 1001.4
20260508010026 15 202 16.1 27.4 0.89 2.97 2.11 97 1000.2
20260508004523 16 223 16.1 25.7 0.97 2.90 2.03 97 1001.6
20260508003019 15 277 16.1 22.5 1.22 2.77 1.88 97 1002.1
20260508001515 16 258 11.3 20.9 1.60 2.54 1.65 97 1001.6
20260508000014 15 316 3.2 6.4 1.17 2.03 1.17 97 1001.0
20260507234522 15 274 9.7 12.9 1.09 1.96 1.09 97 1000.7
20260507233016 15 282 4.8 14.5 0.64 1.52 0.64 97 1000.5
20260507231506 15 349 12.9 19.3 0.05 0.94 0.05 97 999.9
20260507221530 15 14 16.1 22.5 0.71 0.99 0.79 97 999.6
20260507220026 15 341 4.8 9.7 0.66 0.89 0.66 97 1001.8
20260507214519 15 39 4.8 8.0 0.48 0.71 0.48 97 1001.7
20260507213023 15 350 11.3 17.7 0.28 0.51 0.28 96 1002.5
20260507211517 15 91 6.4 17.7 0.03 0.23 0.03 96 1002.4
20260507191531 16 119 24.1 38.6 0.23 0.23 0.23 95 1002.5
20260507190042 16 206 19.3 29.0 0.23 0.23 0.23 95 1003.1
20260507184533 16 185 16.1 33.8 0.03 0.03 0.03 92 1001.8
20260507181505 25 279 40.2 59.5 0.00 0.00 0.00 69 999.6
20260507180005 25 276 35.4 53.1 0.00 0.00 0.00 70 999.5
20260507174506 25 299 37.0 57.9 0.00 0.00 0.00 69 999.7
20260507171534 25 274 41.8 57.9 0.00 0.00 0.00 70 999.7
20260507170033 25 276 35.4 61.2 0.00 0.00 0.00 71 1000.1
20260507164544 25 307 37.0 54.7 0.00 0.00 0.00 71 1000.2
20260507163029 25 280 38.6 59.5 0.00 0.00 0.00 71 1000.5
20260507161527 25 279 43.5 64.4 0.00 0.00 0.00 71 1000.7
20260507160028 25 289 32.2 56.3 0.00 0.00 0.00 71 1000.9
20260507154522 25 303 30.6 49.9 0.00 0.00 0.00 73 1001.2
20260507153018 24 276 29.0 45.1 0.00 0.00 0.00 75 1001.4
20260507151513 23 301 20.9 40.2 0.00 0.00 0.00 81 1001.8
20260507150010 22 304 22.5 37.0 0.00 0.00 0.00 83 1001.9
20260507144504 22 298 20.9 29.0 0.00 0.00 0.00 83 1002.4
20260507143001 22 298 19.3 27.4 0.00 0.00 0.00 83 1002.8
20260507141604 21 320 22.5 37.0 0.00 0.00 0.00 83 1003.3
20260507140059 21 320 24.1 37.0 0.00 0.00 0.00 83 1003.4
20260507134558 21 301 25.7 43.5 0.00 0.00 0.00 83 1003.4
20260507133058 21 314 27.4 43.5 0.00 0.00 0.00 83 1003.2
20260507131602 21 299 33.8 49.9 0.00 0.00 0.00 83 1003.3
20260507130057 21 308 33.8 53.1 0.00 0.00 0.00 82 1003.2
20260507124603 22 307 35.4 54.7 0.00 0.00 0.00 80 1003.1
20260507123053 22 306 38.6 51.5 0.00 0.00 0.00 81 1003.9
20260507121551 21 294 30.6 49.9 0.00 0.00 0.00 82 1004.6
20260507120052 21 307 35.4 57.9 0.00 0.00 0.00 82 1004.6
20260507114604 21 293 37.0 49.9 0.00 0.00 0.00 82 1005.0
20260507113104 21 292 30.6 43.5 0.00 0.00 0.00 83 1004.7
20260507111549 21 296 35.4 49.9 0.00 0.00 0.00 82 1004.7
20260507110047 21 295 33.8 46.7 0.00 0.00 0.00 83 1004.9
20260507104545 21 323 25.7 43.5 0.00 0.00 0.00 84 1005.1
20260507103050 21 303 35.4 48.3 0.00 0.00 0.00 84 1005.0
20260507101546 21 312 30.6 46.7 0.00 0.00 0.00 84 1004.8